Flag for U.S.A. Weather past 2 weeks in Baltimore, Maryland, U.S.A.

Now
53 °F

Passing clouds.


Feels Like: 53 °F
Forecast: 51 / 73 °F
Wind: No wind

Location: Baltimore-Washington International Airport

Current Time: Sep 15, 2014 at 12:29:22 AM

Latest Report: Sep 14, 2014 at 11:54 PM


Visibility: 10 mi

Pressure: 30.22 "Hg

Humidity: 89%

Dew point: 50 °F

Location of BaltimoreLocation

Historic Weather in Baltimore — Graph

°F

Baltimore temperature yesterday

Maximum temperature yesterday: 68 °F (at 2:54 PM)
Minimum temperature yesterday: 50 °F (at 5:54 AM)
Average temperature yesterday: 60 °F

Past Weeks' High & Low Weather Summary

 TemperatureHumidityPressure
High92 °F (Sep 6, 2:54 PM)100% (Sep 5, 8:00 AM)30.32 "Hg (Sep 5, 8:00 AM)
Low50 °F (Sep 14, 5:54 AM)35% (Sep 7, 3:54 PM)29.85 "Hg (Sep 6, 4:54 PM)
Average74 °F74%30.07 "Hg
* Reported Aug 30 10:54 PM — Sep 14 10:54 PM, Baltimore, Weather by CustomWeather, © 2014

Note: Actual official high and low records may vary slightly from our data, if they occured in-between our weather recording intervals... More about our weather records

Advertising

Baltimore weather history for previous 24 hours

 ConditionsComfort  
Time TempWeatherWind HumidityBarometerVisibility
10:54 PM
Sep 14
54 °FClear.No wind90%30.22 "Hg10 mi
9:54 PM56 °FClear.No wind84%30.22 "Hg10 mi
8:54 PM59 °FPassing clouds.No wind72%30.22 "Hg10 mi
7:54 PM60 °FPartly sunny.No wind69%30.21 "Hg10 mi
6:54 PM66 °FPartly sunny.5 mph52%30.21 "Hg10 mi
5:54 PM67 °FBroken clouds.3 mph51%30.21 "Hg10 mi
4:54 PM67 °FPartly sunny.5 mph47%30.21 "Hg10 mi
3:54 PM68 °FBroken clouds.8 mph47%30.22 "Hg10 mi
2:54 PM68 °FPartly sunny.7 mph47%30.24 "Hg10 mi
1:54 PM67 °FPartly sunny.6 mph45%30.26 "Hg10 mi
12:54 PM66 °FBroken clouds.5 mph50%30.28 "Hg10 mi
11:54 AM64 °FPartly sunny.No wind52%30.29 "Hg10 mi
10:54 AM62 °FPartly sunny.9 mph56%30.31 "Hg10 mi
9:54 AM60 °FPartly sunny.9 mph60%30.32 "Hg10 mi
8:54 AM58 °FPartly sunny.6 mph70%30.32 "Hg10 mi
7:54 AM55 °FScattered clouds.No wind77%30.31 "Hg10 mi
6:54 AM50 °FPassing clouds.No wind89%30.28 "Hg10 mi
5:54 AM50 °FClear.No wind89%30.26 "Hg10 mi
4:54 AM52 °FClear.3 mph86%30.25 "Hg10 mi
3:54 AM54 °FClear.5 mph83%30.23 "Hg10 mi
2:54 AM55 °FClear.No wind80%30.23 "Hg10 mi
1:54 AM56 °FClear.3 mph81%30.22 "Hg10 mi
12:54 AM58 °FClear.7 mph87%30.21 "Hg10 mi
Weather by CustomWeather, © 2014

See weather overviewHow to use our weather pages